This is the latest recevied weather packets stored in our database for station/object KD8UTJ. If no packets are shown the sender has not sent any weather packets the latest 10 day(s).
| Time | Temp. | Humidity | Pressure | Rain* | Wind** | Luminosity | Snow |
|---|---|---|---|---|---|---|---|
| 1777854390 | 22.22° C | 72% | 1018.2 hPa | 0 mm | - | 0 W/m² | - |
| 1777854087 | 22.22° C | 72% | 1018.2 hPa | 0 mm | - | 0 W/m² | - |
| 1777853785 | 22.22° C | 73% | 1018.3 hPa | 0 mm | - | 0 W/m² | - |
| 1777853481 | 22.22° C | 73% | 1018.3 hPa | 0 mm | - | 0 W/m² | - |
| 1777853179 | 22.22° C | 72% | 1018.1 hPa | 0 mm | - | 1 W/m² | - |
| 1777852876 | 22.22° C | 73% | 1018 hPa | 0 mm | - | 2 W/m² | - |
| 1777852574 | 22.22° C | 72% | 1018.2 hPa | 0 mm | - | 2 W/m² | - |
| 1777852270 | 22.22° C | 73% | 1018.2 hPa | 0 mm | - | 3 W/m² | - |
| 1777851963 | 22.22° C | 73% | 1018.1 hPa | 0 mm | - | 3 W/m² | - |
| 1777851661 | 22.22° C | 73% | 1018.2 hPa | 0 mm | - | 4 W/m² | - |
| 1777851357 | 22.78° C | 73% | 1018.1 hPa | 0 mm | - | 5 W/m² | - |
| 1777851053 | 22.78° C | 72% | 1018.3 hPa | 0 mm | - | 5 W/m² | - |
| 1777850750 | 22.78° C | 72% | 1018.3 hPa | 0 mm | - | 6 W/m² | - |
| 1777850448 | 22.78° C | 73% | 1018.3 hPa | 0 mm | - | 5 W/m² | - |
| 1777850145 | 22.78° C | 73% | 1018.1 hPa | 0 mm | - | 6 W/m² | - |
| 1777849842 | 22.78° C | 73% | 1018.4 hPa | 0 mm | - | 8 W/m² | - |
| 1777849538 | 22.78° C | 73% | 1018.1 hPa | 0 mm | - | 11 W/m² | - |
| 1777849236 | 22.78° C | 73% | 1018 hPa | 0 mm | - | 14 W/m² | - |
| 1777848932 | 22.78° C | 73% | 1018.2 hPa | 0 mm | - | 15 W/m² | - |
| 1777848627 | 22.22° C | 73% | 1018.1 hPa | 0 mm | - | 16 W/m² | - |
| 1777848325 | 22.78° C | 74% | 1018.2 hPa | 0 mm | - | 17 W/m² | - |
| 1777848022 | 22.78° C | 74% | 1018.2 hPa | 0 mm | - | 23 W/m² | - |
| 1777847720 | 22.78° C | 74% | 1018.2 hPa | 0 mm | - | 27 W/m² | - |
| 1777847415 | 22.78° C | 73% | 1018.2 hPa | 0 mm | - | 31 W/m² | - |
| 1777847114 | 22.78° C | 74% | 1018.1 hPa | 0 mm | - | 28 W/m² | - |
* Rain latest hour (hover to see other rain measurements)
** Current wind speed in m/s (hover to see current wind gust speed)